Weather History for KMVY - February, 2013

Change the Weather History Date:

Tuesday, February 12, 2013

  Actual Average Record
Temperature  
Mean Temperature 40 °F -  
Max Temperature 45 °F 37 °F 54 °F (1981)
Min Temperature 34 °F 20 °F -1 °F (1979)
Degree Days  
Heating Degree Days 25    
Moisture  
Dew Point 32 °F    
Average Humidity 77    
Maximum Humidity 100    
Minimum Humidity 52    
Precipitation  
Precipitation 0.00 in - - ()
Sea Level Pressure  
Sea Level Pressure 29.73 in    
Wind  
Wind Speed 9 mph (West)    
Max Wind Speed 14 mph    
Max Gust Speed 26 mph    
Visibility 10 miles    
Events      
Averages and records for this station are not official NWS values.
T = Trace of Precipitation, MM = Missing Value Source: NWS Daily Summary

Daily Weather History Graph

Daily Weather History Graph

Search for Another Location

Airport or City:

Trip Planner

Search our weather history database for the weather conditions in past years. The results will help you decide how hot, cold, wet, or windy it might be!

Date:

Astronomy

Feb. 12, 2013 Rise Set
Actual Time 6:41 AM EST 5:12 PM EST
Civil Twilight 6:12 AM EST 5:41 PM EST
Nautical Twilight 5:40 AM EST 6:13 PM EST
Astronomical Twilight 5:07 AM EST 6:46 PM EST
Moon 7:34 AM EST (2/12) 8:13 PM EST (2/12)
Length of Visible Light 11h 28m
Length of Day
10h 31m
Waxing Crescent, 7% of the Moon is Illuminated
Feb 12
Waxing Crescent
Feb 17
First Quarter
Feb 25
Full
Mar 4
Last Quarter
Mar 11
New

Hourly Weather History & Observations

Time (EST) Temp. Windchill Dew Point Humidity Pressure Visibility Wind Dir Wind Speed Gust Speed Precip Events Conditions
12:30 AM 44.6 °F 40.2 °F 44.6 °F 100% 29.61 in 3.0 mi West 8.1 mph 17.3 mph N/A   Overcast
12:53 AM 42.1 °F 35.7 °F 42.1 °F 100% 29.62 in 6.0 mi West 11.5 mph 19.6 mph N/A   Overcast
1:42 AM 39.2 °F 33.0 °F 39.2 °F 100% 29.62 in 10.0 mi WNW 9.2 mph - N/A   Overcast
1:53 AM 39.9 °F 32.9 °F 39.9 °F 100% 29.62 in 10.0 mi WNW 11.5 mph - N/A   Overcast
2:30 AM 39.2 °F 33.6 °F 39.2 °F 100% 29.62 in 10.0 mi WNW 8.1 mph - N/A   Scattered Clouds
2:53 AM 39.0 °F 34.8 °F 39.0 °F 100% 29.62 in 10.0 mi WNW 5.8 mph - N/A   Clear
3:53 AM 39.0 °F 33.4 °F 36.0 °F 89% 29.65 in 10.0 mi WNW 8.1 mph 20.7 mph N/A   Clear
4:53 AM 37.0 °F 31.0 °F 33.1 °F 86% 29.67 in 10.0 mi West 8.1 mph - N/A   Scattered Clouds
5:53 AM 37.0 °F 31.6 °F 30.9 °F 79% 29.68 in 10.0 mi WNW 6.9 mph - N/A   Clear
6:53 AM 36.0 °F 30.3 °F 30.9 °F 82% 29.70 in 10.0 mi WNW 6.9 mph - N/A   Clear
7:53 AM 39.0 °F 31.8 °F 30.9 °F 73% 29.72 in 10.0 mi West 11.5 mph 17.3 mph N/A   Clear
8:53 AM 41.0 °F 34.7 °F 30.9 °F 67% 29.74 in 10.0 mi West 10.4 mph 21.9 mph N/A   Clear
9:53 AM 42.1 °F 35.2 °F 33.1 °F 70% 29.74 in 10.0 mi West 12.7 mph 23.0 mph N/A   Clear
10:53 AM 42.1 °F 34.9 °F 32.0 °F 67% 29.75 in 10.0 mi WSW 13.8 mph 21.9 mph N/A   Partly Cloudy
11:53 AM 44.1 °F 37.7 °F 30.9 °F 60% 29.74 in 10.0 mi West 12.7 mph 24.2 mph N/A   Clear
12:53 PM 45.0 °F 39.3 °F 28.0 °F 52% 29.74 in 10.0 mi West 11.5 mph 23.0 mph N/A   Clear
1:53 PM 44.1 °F 37.4 °F 30.9 °F 60% 29.75 in 10.0 mi West 13.8 mph 26.5 mph N/A   Clear
2:53 PM 44.1 °F 37.4 °F 32.0 °F 63% 29.77 in 10.0 mi West 13.8 mph 20.7 mph N/A   Clear
3:53 PM 43.0 °F 38.2 °F 30.9 °F 62% 29.78 in 10.0 mi West 8.1 mph - N/A   Clear
4:53 PM 39.9 °F 36.7 °F 30.0 °F 68% 29.76 in 10.0 mi West 4.6 mph - N/A   Clear
5:53 PM 36.0 °F 32.1 °F 28.9 °F 76% 29.77 in 10.0 mi SSE 4.6 mph - N/A   Clear
6:53 PM 36.0 °F 31.1 °F 30.0 °F 79% 29.81 in 10.0 mi West 5.8 mph - N/A   Clear
7:53 PM 37.0 °F 31.0 °F 28.0 °F 70% 29.90 in 10.0 mi West 8.1 mph - N/A   Clear
8:53 PM 37.9 °F 32.1 °F 27.0 °F 65% 29.90 in 10.0 mi WNW 8.1 mph - N/A   Clear
9:53 PM 36.0 °F 31.1 °F 26.1 °F 67% 29.86 in 10.0 mi WNW 5.8 mph - N/A   Clear
10:53 PM 35.1 °F 28.6 °F 26.1 °F 70% 29.83 in 10.0 mi NW 8.1 mph - N/A   Clear
11:53 PM 34.0 °F 27.2 °F 25.0 °F 70% 29.85 in 10.0 mi WNW 8.1 mph - N/A   Clear